Time,TemperatureF,DewpointF,PressureIn,WindDirection,WindDirectionDegrees,WindSpeedMPH,WindSpeedGustMPH,Humidity,HourlyPrecipIn,Conditions,Clouds,dailyrainin,SoftwareType,DateUTC
2013-03-04 00:01:00,20.0,12.0,30.01,East,86,0.0,2.0,71,0.00,,,0.00,,2013-03-04 06:01:00,
2013-03-04 00:11:00,20.0,12.0,30.01,East,86,0.0,2.0,71,0.00,,,0.00,,2013-03-04 06:11:00,
2013-03-04 00:21:00,20.0,12.0,30.01,East,86,0.0,2.0,72,0.00,,,0.00,,2013-03-04 06:21:00,
2013-03-04 00:32:00,20.0,13.0,30.02,East,86,0.0,0.0,73,0.00,,,0.00,,2013-03-04 06:32:00,
2013-03-04 00:42:00,20.0,13.0,30.02,East,86,0.0,0.0,73,0.00,,,0.00,,2013-03-04 06:42:00,
2013-03-04 00:51:00,20.0,13.0,30.02,East,86,0.0,2.0,73,0.00,,,0.00,,2013-03-04 06:51:00,
2013-03-04 01:01:00,21.0,13.0,30.02,East,83,3.0,4.0,70,0.00,,,0.00,,2013-03-04 07:01:00,
2013-03-04 01:11:00,21.0,13.0,30.02,East,83,3.0,4.0,70,0.00,,,0.00,,2013-03-04 07:11:00,
2013-03-04 01:21:00,21.0,12.0,30.02,East,84,0.0,3.0,69,0.00,,,0.00,,2013-03-04 07:21:00,
2013-03-04 01:32:00,21.0,13.0,30.02,East,84,2.0,3.0,70,0.00,,,0.00,,2013-03-04 07:32:00,
2013-03-04 01:41:00,21.0,13.0,30.02,East,84,2.0,3.0,70,0.00,,,0.00,,2013-03-04 07:41:00,
2013-03-04 01:52:00,21.0,13.0,30.02,East,84,0.0,3.0,70,0.00,,,0.00,,2013-03-04 07:52:00,
2013-03-04 02:02:00,21.0,14.0,30.02,East,84,0.0,3.0,73,0.00,,,0.00,,2013-03-04 08:02:00,
2013-03-04 02:11:00,21.0,14.0,30.02,East,84,0.0,3.0,73,0.00,,,0.00,,2013-03-04 08:11:00,
2013-03-04 02:21:00,21.0,14.0,30.01,East,84,0.0,2.0,73,0.00,,,0.00,,2013-03-04 08:21:00,
2013-03-04 02:32:00,21.0,14.0,30.01,East,84,0.0,2.0,73,0.00,,,0.00,,2013-03-04 08:32:00,
2013-03-04 02:42:00,21.0,14.0,30.01,East,84,0.0,2.0,73,0.00,,,0.00,,2013-03-04 08:42:00,
2013-03-04 02:52:00,21.0,14.0,30.00,East,84,0.0,4.0,74,0.00,,,0.00,,2013-03-04 08:52:00,
2013-03-04 03:01:00,21.0,14.0,30.00,ENE,76,0.0,4.0,74,0.00,,,0.00,,2013-03-04 09:01:00,
2013-03-04 03:11:00,21.0,14.0,30.00,ENE,76,0.0,4.0,74,0.00,,,0.00,,2013-03-04 09:11:00,
2013-03-04 03:21:00,22.0,15.0,29.99,East,82,2.0,5.0,73,0.00,,,0.00,,2013-03-04 09:21:00,
2013-03-04 03:32:00,22.0,15.0,29.99,East,81,3.0,5.0,74,0.00,,,0.00,,2013-03-04 09:32:00,
2013-03-04 03:42:00,22.0,15.0,29.99,East,81,3.0,5.0,74,0.00,,,0.00,,2013-03-04 09:42:00,
2013-03-04 03:52:00,22.0,15.0,29.98,East,82,1.0,6.0,75,0.00,,,0.00,,2013-03-04 09:52:00,
2013-03-04 04:01:00,22.0,16.0,29.98,ESE,103,0.0,7.0,76,0.00,,,0.00,,2013-03-04 10:01:00,
2013-03-04 04:11:00,22.0,16.0,29.98,ESE,103,0.0,7.0,76,0.00,,,0.00,,2013-03-04 10:11:00,
2013-03-04 04:22:00,22.0,16.0,29.97,East,82,3.0,4.0,77,0.00,,,0.00,,2013-03-04 10:22:00,
2013-03-04 04:31:00,22.0,16.0,29.98,ENE,71,1.0,5.0,77,0.00,,,0.00,,2013-03-04 10:31:00,
2013-03-04 04:42:00,22.0,16.0,29.98,ENE,71,1.0,5.0,77,0.00,,,0.00,,2013-03-04 10:42:00,
2013-03-04 04:52:00,22.0,16.0,29.98,ENE,72,1.0,4.0,78,0.00,,,0.00,,2013-03-04 10:52:00,
2013-03-04 05:01:00,23.0,17.0,29.97,East,94,4.0,6.0,79,0.00,,,0.00,,2013-03-04 11:01:00,
2013-03-04 05:11:00,23.0,17.0,29.97,East,94,4.0,6.0,79,0.00,,,0.00,,2013-03-04 11:11:00,
2013-03-04 05:21:00,23.0,18.0,29.97,ENE,78,1.0,6.0,80,0.00,,,0.00,,2013-03-04 11:21:00,
2013-03-04 05:32:00,23.0,18.0,29.97,ENE,57,3.0,7.0,80,0.00,,,0.00,,2013-03-04 11:32:00,
2013-03-04 05:42:00,23.0,18.0,29.97,ENE,57,3.0,7.0,80,0.00,,,0.00,,2013-03-04 11:42:00,
2013-03-04 05:52:00,23.0,18.0,29.97,East,85,3.0,7.0,80,0.00,,,0.00,,2013-03-04 11:52:00,
2013-03-04 06:01:00,23.0,18.0,29.97,East,85,2.0,5.0,80,0.00,,,0.00,,2013-03-04 12:01:00,
2013-03-04 06:11:00,23.0,18.0,29.97,East,85,2.0,5.0,80,0.00,,,0.00,,2013-03-04 12:11:00,
2013-03-04 06:22:00,24.0,19.0,29.97,East,91,4.0,5.0,80,0.00,,,0.00,,2013-03-04 12:22:00,
2013-03-04 06:32:00,24.0,19.0,29.96,ENE,78,4.0,6.0,80,0.00,,,0.00,,2013-03-04 12:32:00,
2013-03-04 06:42:00,24.0,19.0,29.96,ENE,78,4.0,6.0,80,0.00,,,0.00,,2013-03-04 12:42:00,
2013-03-04 06:52:00,24.0,19.0,29.96,East,84,4.0,7.0,81,0.00,,,0.00,,2013-03-04 12:52:00,
2013-03-04 07:02:00,24.0,19.0,29.96,East,85,4.0,7.0,81,0.00,,,0.00,,2013-03-04 13:02:00,
2013-03-04 07:11:00,24.0,19.0,29.96,East,85,4.0,7.0,81,0.00,,,0.00,,2013-03-04 13:11:00,
2013-03-04 07:21:00,25.0,20.0,29.96,ESE,115,2.0,7.0,81,0.00,,,0.00,,2013-03-04 13:21:00,
2013-03-04 07:32:00,25.0,20.0,29.96,East,82,4.0,11.0,80,0.00,,,0.00,,2013-03-04 13:32:00,
2013-03-04 07:41:00,25.0,20.0,29.96,East,82,4.0,11.0,80,0.00,,,0.00,,2013-03-04 13:41:00,
2013-03-04 07:52:00,25.0,19.0,29.95,East,79,6.0,10.0,78,0.00,,,0.00,,2013-03-04 13:52:00,
2013-03-04 08:01:00,26.0,20.0,29.96,East,82,7.0,11.0,78,0.00,,,0.00,,2013-03-04 14:01:00,
2013-03-04 08:11:00,26.0,20.0,29.96,East,82,7.0,11.0,78,0.00,,,0.00,,2013-03-04 14:11:00,
2013-03-04 08:22:00,26.0,20.0,29.96,ESE,110,9.0,11.0,78,0.00,,,0.00,,2013-03-04 14:22:00,
2013-03-04 08:32:00,26.0,20.0,29.96,East,90,6.0,10.0,78,0.00,,,0.00,,2013-03-04 14:32:00,
2013-03-04 08:42:00,26.0,20.0,29.96,East,90,6.0,10.0,78,0.00,,,0.00,,2013-03-04 14:42:00,
2013-03-04 08:52:00,27.0,21.0,29.96,ENE,78,8.0,11.0,77,0.00,,,0.00,,2013-03-04 14:52:00,
2013-03-04 09:01:00,27.0,21.0,29.96,SE,135,5.0,13.0,77,0.00,,,0.00,,2013-03-04 15:01:00,
2013-03-04 09:11:00,27.0,21.0,29.96,SE,135,5.0,13.0,77,0.00,,,0.00,,2013-03-04 15:11:00,
2013-03-04 09:22:00,27.0,21.0,29.95,East,80,6.0,11.0,77,0.00,,,0.00,,2013-03-04 15:22:00,
2013-03-04 09:32:00,27.0,21.0,29.95,East,79,5.0,11.0,77,0.00,,,0.00,,2013-03-04 15:32:00,
2013-03-04 09:42:00,27.0,21.0,29.95,East,79,5.0,11.0,77,0.00,,,0.00,,2013-03-04 15:42:00,
2013-03-04 09:52:00,28.0,22.0,29.95,East,82,3.0,9.0,77,0.00,,,0.00,,2013-03-04 15:52:00,
2013-03-04 10:02:00,27.0,22.0,29.95,East,81,4.0,11.0,80,0.00,,,0.00,,2013-03-04 16:02:00,
2013-03-04 10:11:00,27.0,22.0,29.95,East,81,4.0,11.0,80,0.00,,,0.00,,2013-03-04 16:11:00,
2013-03-04 10:21:00,28.0,23.0,29.96,SE,134,6.0,14.0,82,0.00,,,0.00,,2013-03-04 16:21:00,
2013-03-04 10:31:00,28.0,24.0,29.95,NE,40,6.0,16.0,83,0.00,,,0.00,,2013-03-04 16:31:00,
2013-03-04 10:42:00,28.0,24.0,29.95,NE,40,6.0,16.0,83,0.00,,,0.00,,2013-03-04 16:42:00,
2013-03-04 10:52:00,28.0,24.0,29.94,East,88,5.0,11.0,85,0.00,,,0.00,,2013-03-04 16:52:00,
2013-03-04 11:02:00,28.0,24.0,29.94,East,80,4.0,11.0,86,0.00,,,0.00,,2013-03-04 17:02:00,
2013-03-04 11:11:00,28.0,24.0,29.94,East,80,4.0,11.0,86,0.00,,,0.00,,2013-03-04 17:11:00,
2013-03-04 11:22:00,28.0,24.0,29.93,East,84,3.0,10.0,85,0.00,,,0.00,,2013-03-04 17:22:00,
2013-03-04 11:32:00,28.0,24.0,29.93,ENE,74,6.0,14.0,84,0.00,,,0.00,,2013-03-04 17:32:00,
2013-03-04 11:42:00,28.0,24.0,29.93,ENE,74,6.0,14.0,84,0.00,,,0.00,,2013-03-04 17:42:00,
2013-03-04 11:52:00,29.0,25.0,29.93,ENE,71,7.0,13.0,83,0.00,,,0.00,,2013-03-04 17:52:00,
2013-03-04 12:01:00,28.0,24.0,29.93,East,82,6.0,13.0,85,0.00,,,0.00,,2013-03-04 18:01:00,
2013-03-04 12:11:00,28.0,24.0,29.93,East,82,6.0,13.0,85,0.00,,,0.00,,2013-03-04 18:11:00,
2013-03-04 12:21:00,29.0,25.0,29.93,ENE,74,10.0,13.0,86,0.00,,,0.00,,2013-03-04 18:21:00,
2013-03-04 12:32:00,29.0,25.0,29.93,East,85,7.0,13.0,86,0.00,,,0.00,,2013-03-04 18:32:00,
2013-03-04 12:42:00,29.0,25.0,29.93,East,85,7.0,13.0,86,0.00,,,0.00,,2013-03-04 18:42:00,
2013-03-04 12:52:00,29.0,25.0,29.92,East,85,10.0,12.0,86,0.00,,,0.00,,2013-03-04 18:52:00,
2013-03-04 13:01:00,29.0,25.0,29.91,ENE,65,6.0,14.0,86,0.00,,,0.00,,2013-03-04 19:01:00,
2013-03-04 13:11:00,29.0,25.0,29.91,ENE,65,6.0,14.0,86,0.00,,,0.00,,2013-03-04 19:11:00,
2013-03-04 13:22:00,29.0,25.0,29.91,ESE,105,7.0,14.0,85,0.00,,,0.00,,2013-03-04 19:22:00,
2013-03-04 13:32:00,30.0,26.0,29.91,East,82,7.0,14.0,84,0.00,,,0.00,,2013-03-04 19:32:00,
2013-03-04 13:42:00,30.0,26.0,29.91,East,82,7.0,14.0,84,0.00,,,0.00,,2013-03-04 19:42:00,
2013-03-04 13:52:00,30.0,26.0,29.91,East,90,4.0,13.0,84,0.00,,,0.00,,2013-03-04 19:52:00,
2013-03-04 14:01:00,30.0,26.0,29.90,ENE,76,10.0,14.0,84,0.00,,,0.00,,2013-03-04 20:01:00,
2013-03-04 14:11:00,30.0,26.0,29.90,ENE,76,10.0,14.0,84,0.00,,,0.00,,2013-03-04 20:11:00,
2013-03-04 14:22:00,30.0,26.0,29.89,ENE,76,14.0,14.0,84,0.00,,,0.00,,2013-03-04 20:22:00,
2013-03-04 14:32:00,30.0,26.0,29.88,ENE,76,10.0,18.0,84,0.00,,,0.00,,2013-03-04 20:32:00,
2013-03-04 14:42:00,30.0,26.0,29.88,ENE,76,10.0,18.0,84,0.00,,,0.00,,2013-03-04 20:42:00,
2013-03-04 14:52:00,30.0,25.0,29.88,ENE,71,11.0,20.0,83,0.00,,,0.00,,2013-03-04 20:52:00,
2013-03-04 15:02:00,30.0,25.0,29.87,East,94,9.0,17.0,83,0.00,,,0.00,,2013-03-04 21:02:00,
2013-03-04 15:11:00,30.0,25.0,29.87,East,94,9.0,17.0,83,0.00,,,0.00,,2013-03-04 21:11:00,
2013-03-04 15:22:00,31.0,26.0,29.86,ENE,62,12.0,14.0,82,0.00,,,0.00,,2013-03-04 21:22:00,
2013-03-04 15:32:00,31.0,26.0,29.86,ENE,78,10.0,18.0,81,0.00,,,0.00,,2013-03-04 21:32:00,
2013-03-04 15:42:00,31.0,26.0,29.86,ENE,78,10.0,18.0,81,0.00,,,0.00,,2013-03-04 21:42:00,
2013-03-04 15:53:00,31.0,26.0,29.86,ESE,105,9.0,16.0,80,0.00,,,0.00,,2013-03-04 21:53:00,
2013-03-04 16:01:00,31.0,25.0,29.86,ENE,75,12.0,17.0,79,0.00,,,0.00,,2013-03-04 22:01:00,
2013-03-04 16:12:00,31.0,25.0,29.86,ENE,75,12.0,17.0,79,0.00,,,0.00,,2013-03-04 22:12:00,
2013-03-04 16:22:00,31.0,25.0,29.86,East,82,11.0,15.0,78,0.00,,,0.00,,2013-03-04 22:22:00,
2013-03-04 16:32:00,31.0,25.0,29.86,ESE,104,6.0,17.0,78,0.00,,,0.00,,2013-03-04 22:32:00,
2013-03-04 16:42:00,31.0,25.0,29.86,ESE,104,6.0,17.0,78,0.00,,,0.00,,2013-03-04 22:42:00,
2013-03-04 16:52:00,31.0,25.0,29.86,ENE,67,7.0,21.0,79,0.00,,,0.00,,2013-03-04 22:52:00,
2013-03-04 17:01:00,31.0,26.0,29.86,ENE,71,7.0,21.0,80,0.00,,,0.00,,2013-03-04 23:01:00,
2013-03-04 17:11:00,31.0,26.0,29.86,ENE,71,7.0,21.0,80,0.00,,,0.00,,2013-03-04 23:11:00,
2013-03-04 17:22:00,31.0,26.0,29.86,ENE,71,7.0,21.0,80,0.00,,,0.00,,2013-03-04 23:22:00,
2013-03-04 17:32:00,31.0,26.0,29.86,ENE,71,7.0,21.0,80,0.00,,,0.00,,2013-03-04 23:32:00,